Find DMSP F-4

NORAD ID: 11389 Int'l Des: 1979-050 Owner: SAMSO Country: US operational
LEOCIRCULARRETROGRADESSO

当前视图

正在加载3D地球...

About DMSP F-4

DMSP F-4 (NORAD 11389) is a satellite launched Jun 6, 1979 by SAMSO of US. It operates in LEO, CIRCULAR, RETROGRADE, SSO orbit with a mass of 447.00 kg.

即将过境

Passes for default location (London). Set your location on the main map for personalized predictions.

高度历史

Loading altitude history...

两行轨道根数

1 11389U 79050A 26194.84738617 .00000044 00000-0 34508-4 0 9991
2 11389 98.6317 149.2648 0013027 65.7772 294.4769 14.29351029379511
Epoch: Jul 13, 2026 • Age: 18 hours

当前状态

高度 797.8 km
远地点 / 近地点 N/A
速度 7.46 km/s
星下点 15.76°N, 168.53°W
发射日期 Jun 6, 1979
运行时间 47.1 years
类型 other

技术详情

分类 Payload
质量 447.00 kg
干质量 447.00 kg
总质量 1177.00 kg
长度 6.10 m
直径 1.50 m
跨度 6.10 m
形状 Box + Pan
制造商 RCA
平台类型 Block 5D
阶段状态 Attached in Orbit
所有者/国家 SAMSO/US

Most Searched